Location: Santa Teresa Spring
(37.2333°N, 121.7000°W)
Time: 14:48:41
(UTC-07:00)

ISS - Visible Passes

Search period start: 03 June 2015 00:00
Search period end: 13 June 2015 00:00
Orbit: 398 x 404 km, 51.6° (Epoch: 03 June)

Date Brightness Start Highest point End Pass type
(mag) Time Alt. Az. Time Alt. Az. Time Alt. Az.
03 Jun -0.5 02:46:19 10° NNW 02:48:44 19° NNE 02:51:11 10° ENE visible
03 Jun -3.2 04:22:10 10° WNW 04:25:21 50° SW 04:28:30 10° SSE visible
03 Jun -2.4 20:59:38 10° WSW 21:02:47 51° NW 21:05:58 10° NE visible
03 Jun 0.2 22:38:49 10° NW 22:39:50 11° NNW 22:40:49 10° N visible
04 Jun 0.1 01:53:36 10° N 01:55:10 13° NNE 01:56:49 10° NE visible
04 Jun -1.1 03:28:50 10° NW 03:35:56 - SE 03:29:45 17° NW visible
04 Jun -0.1 21:44:08 10° WNW 21:46:14 16° NNW 21:48:18 10° NNE visible
05 Jun -0.7 20:49:58 10° W 20:52:42 24° NNW 20:55:26 10° NNE visible
06 Jun 0.0 01:42:41 10° NNW 01:42:59 12° NNW 01:42:59 12° NNW visible
06 Jun 0.3 21:35:51 10° NNW 21:36:21 10° NNW 21:36:48 10° N visible
07 Jun 0.0 00:49:52 10° N 00:50:52 13° N 00:50:52 13° N visible
07 Jun 0.0 23:57:51 10° NNE 23:58:02 10° NNE 23:58:15 10° NNE visible
09 Jun -0.1 00:38:59 10° NNW 00:39:39 14° NNW 00:39:39 14° NNW visible
09 Jun -0.5 23:46:05 10° NNW 23:47:53 15° NNE 23:47:53 15° NNE visible
10 Jun -0.3 22:53:35 10° N 22:54:25 11° NNE 22:55:19 10° NE visible
11 Jun -0.1 00:28:18 10° NW 00:28:43 13° NW 00:28:43 13° NW visible
11 Jun -0.9 23:35:10 10° NNW 23:37:02 23° N 23:37:02 23° N visible
12 Jun -0.9 22:42:13 10° NNW 22:44:24 17° NNE 22:45:23 15° NE visible
